User: anonymous   Login
Location: Caltech
(34.1382°N, 118.1253°W)
Time: 12:32:52
(UTC-07:00)
Language:

Oscar 10/S400 - Orbit

View from above orbital plane
View from above orbital plane
View from above satellite
View from above satellite

Ground track
Ground track

The orbit data is extracted from the following two-line orbital elements,

1 14129U 83058B   16181.22609491 -.00000279  00000-0  00000+0 0  9999
2 14129  26.7545  90.9443 6008301 210.8456 353.0440  2.05869616220557
Epoch (UTC): 29 June 2016 05:25:34
Eccentricity: 0.6008301
inclination: 26.7545°
perigee height: 4041 km
apogee height: 35406 km
right ascension of ascending node: 90.9443°
argument of perigee: 210.8456°
revolutions per day: 2.05869616
mean anomaly at epoch: 353.0440°
orbit number at epoch: 22055

The dashed part of the orbit path shows where the satellite is in the earth's shadow,  

DLR